Regional Weather Roundup
Issued by NWS Green Bay, WI

Home | Current Version | Previous Version | Graphics & Text | Print | Product List | Glossary Off
Versions: 1 2 3 4 5 6 7 8 9 10 11 12 13 14 15 16 17 18 19 20 21 22 23 24 25 26 27 28 29 30 31 32 33 34 35 36 37 38 39 40 41 42 43 44 45 46 47 48 49 50

000
ASUS43 KGRB 201010
RWRGRB

NORTH-CENTRAL AND NORTHEAST WISCONSIN REGIONAL WEATHER ROUNDUP
NATIONAL WEATHER SERVICE GREEN BAY WI
400 AM CST SAT DEC 20 2014

WIZ005-009-010>012-018-019-201100-
NORTH CENTRAL WISCONSIN

CITY           SKY/WX    TMP DP  RH WIND       PRES   REMARKS
IRONWOOD       CLOUDY    25  21  86 S10       30.15R
MANITOWISH WTR CLOUDY    22  22  98 S3        30.16F
ARBOR VITAE    CLOUDY    23  21  92 S5        30.17F
EAGLE RIVER    CLOUDY    20  20  98 CALM      30.17S
LAND O LAKES   CLOUDY    20  19  96 CALM      30.18S
RHINELANDER    CLOUDY    21  19  92 SW5       30.19S FOG
PHILLIPS       CLOUDY    23  22  95 S5        30.17F
ANTIGO         CLOUDY    21  20  96 CALM      30.20S
TOMAHAWK       CLOUDY    23  21  93 CALM      30.20S FOG
MERRILL        CLOUDY    23  22  95 CALM      30.21S FOG
$$

WIZ013-073-201100-
NORTHEAST WISCONSIN

CITY           SKY/WX    TMP DP  RH WIND       PRES   REMARKS
IRON MOUNTAIN  CLOUDY    15  12  88 CALM      30.21F FOG
MARINETTE      CLOUDY    14  10  85 CALM      30.26S
OCONTO         CLOUDY    15  15  98 CALM      30.28R
$$

WIZ017-030-035>037-045-201100-
CENTRAL WISCONSIN

CITY           SKY/WX    TMP DP  RH WIND       PRES   REMARKS
MEDFORD        CLOUDY    23  21  93 SE5       30.19S FOG
WAUSAU         CLOUDY    23  21  92 S5        30.21S
MOSINEE        CLOUDY    23  23 100 SE5       30.23S
MARSHFIELD     CLOUDY    24  22  91 S6        30.21S FOG
WISC RAPIDS    CLOUDY    24  20  84 S3        30.25F
STEVENS POINT  CLOUDY    22  20  90 CALM      30.24S
WAUPACA        CLOUDY    27  23  85 CALM      30.26S
SHAWANO        PTCLDY    19  16  90 CALM      30.27S
CLINTONVILLE   CLOUDY    21  19  93 CALM      30.26S
$$

WIZ038-039-048-051-201100-
FOX VALLEY

CITY           SKY/WX    TMP DP  RH WIND       PRES   REMARKS
NWS GREEN BAY  MOCLDY    22  19  89 CALM      30.27F
APPLETON       CLOUDY    21  19  93 CALM      30.26F
OSHKOSH        CLOUDY    21  18  88 CALM      30.26F
FOND DU LAC    MOCLDY    20  16  84 CALM      30.26F
$$

WIZ022-050-052-201100-
EAST CENTRAL WISCONSIN

CITY           SKY/WX    TMP DP  RH WIND       PRES   REMARKS
STURGEON BAY   CLOUDY    23  19  86 CALM      30.28S
MANITOWOC      CLOUDY    28  24  85 NW7       30.27S
SHEBOYGAN      CLOUDY    27  21  78 NW3       30.27S
$$

LMZ563-521-522-541>543-201100-
LAKESHORE

STATION/POSITION TIME  TEMP    WIND        PRES    VSBY  WAVE
                       AIR SEA DIR/SP/G                  HT/PER
                 (UTC) (F)     (DEG/KT/KT) (MB)    (MI)  (FT/S)
SHEBOYGAN LKSHOR 1000   28 33  310/  3/  4 1026.1S
KEWAUNEE LKSHORE 1000   27     300/  1/  3 1023.9S
ALGOMA MARINA    0900          330/  6/  7   N/A
NORTHPORT PIER   1000   22     220/  1/  4 1025.1S
SISTER BAY LKSHO 1000             CALM       N/A
CHAMBERS ISLAND  1000   17        CALM     1025.1S
MENOMINEE LKSHOR 1000   22     200/  2/  3 1025.5R
$$


USA.gov is the U.S. government's official web portal to all federal, state and local government web resources and services.